{"data":{"norad_id":28659,"intl_designator":"2005-019A","name":"DIRECTV 8","alt_names":[],"object_type":"PAYLOAD","status":"ACTIVE","operator":null,"country":"US","launch_date":"2005-05-22","launch_site_code":"TYMSC","launch_vehicle":null,"mission":null,"orbit_class":"UNKNOWN","rcs_meters":16.6707,"size_class":null,"mass_kg":null,"dimensions":null,"purposes":["comms"],"wikipedia_slug":null,"has_3d_model":false,"image_url":null,"decayed_at":null,"tle_current":{"epoch":"2026-09-19T21:32:10.055904Z","epoch_age_seconds":66552,"freshness":"FRESH","line1":"1 28659U 05019A   26262.89733861 -.00000003  00000+0  00000+0 0  9990","line2":"2 28659   0.0139 118.9626 0002975  53.0640  30.7706  1.00272820 78021","mean_motion":1.0027282,"eccentricity":0.0002975,"inclination_deg":0.0139,"raan_deg":118.9626,"arg_perigee_deg":53.064,"mean_anomaly_deg":30.7706,"bstar":0,"rev_number":7802,"period_min":1436.082080867,"perigee_km":35773.760894175,"apogee_km":35798.848737055,"semimajor_km":42164.441815615,"source":"CELESTRAK","updated_at":"2026-09-20T09:00:35.515424Z"}}}